Location: Newark
(50.0306°N, 2.3272°E)
Time: 14:07:40
(UTC+00:00)

Vanguard 1 Rocket - Pass Details

Date: 20 December 2019
Orbit: 650 x 4226 km, 34.3° (Epoch: 22 January)

Event Time Altitude Azimuth Distance (km) Brightness Sun altitude
Rises 21:23:16 0° 263° (W) 8,153 12.7 -51.3°
Reaches altitude 10° 21:29:52 10° 257° (WSW) 6,749 12.1 -52.2°
Enters shadow 21:43:07 35° 226° (SW) 3,915 10.4 -53.9°
Maximum altitude 21:47:23 40° 198° (SSW) 3,299 - -54.5°
Drops below altitude 10° 21:57:20 10° 134° (SE) 3,903 - -55.7°
Sets 22:00:02 0° 126° (SE) 4,532 - -56.1°
